Theta_e
302 302 302 303 304 306 307 309 311 314 318 322 324 324 323 323 323 322 321 321 319 319 320 319 318 319 318 318 317 316 314 313 309 310 309 310 305 308 302 305 303 303 302
301 302 302 303 304 303 305 305 305 306 308 312 317 320 322 323 323 321 321 321 320 319 319 319 318 318 317 318 318 316 315 315 313 310 308 302 303 302 302 302 300 298 299
302 302 302 302 302 302 302 302 303 304 305 306 307 310 315 320 322 323 321 320 320 320 319 319 318 318 317 317 318 317 317 315 315 313 310 301 295 294 293 292 295 295 295
301 302 302 302 302 302 302 302 303 304 303 304 305 306 309 313 318 321 322 321 321 320 320 319 319 319 318 317 317 317 316 315 314 312 305 294 293 287 289 289 288 287 289
299 300 301 302 302 302 302 301 302 302 303 304 304 305 306 308 313 318 321 321 321 320 319 319 320 316 308 314 317 316 315 313 310 309 291 287 288 286 291 289 290 287 286
297 297 299 299 299 299 299 299 300 300 301 302 302 304 305 306 306 305 312 320 320 319 318 319 318 302 303 303 304 308 314 313 305 306 304 299 292 290 287 289 287 287 289
295 296 295 295 295 295 296 296 296 297 299 300 301 303 305 308 305 304 302 317 319 319 319 318 315 314 305 312 304 304 304 305 307 308 298 299 296 291 291 287 286 287 288
292 291 291 291 292 292 291 291 293 294 295 296 298 301 305 308 305 303 300 313 318 318 318 317 316 313 309 311 310 307 308 305 304 305 306 302 300 295 295 291 288 285 284
287 287 288 287 289 290 291 291 292 293 293 295 296 298 301 305 304 301 301 311 312 314 315 316 315 312 305 303 308 298 293 289 296 298 297 297 295 294 291 289 286 287 283
286 287 287 289 289 289 290 290 291 291 291 292 293 295 296 300 303 301 301 308 307 306 309 308 297 309 302 300 305 294 289 288 289 289 291 291 291 290 290 289 289 287 284
285 286 287 288 288 289 289 289 288 288 289 290 290 292 294 293 295 297 299 306 307 305 301 291 297 298 297 298 298 295 292 289 289 287 286 286 286 285 285 286 286 287 285
284 285 286 287 288 288 287 287 288 288 287 288 288 289 287 287 289 293 296 296 303 297 294 293 293 295 295 295 292 292 291 288 287 286 285 284 284 283 283 283 283 283 283
283 284 285 287 287 287 286 286 286 288 287 287 287 286 285 286 287 290 293 294 293 288 288 290 292 292 291 291 291 290 287 287 286 285 284 283 283 282 281 281 280 280 280
281 283 285 286 286 286 286 286 286 286 287 286 286 285 285 285 285 286 287 288 288 289 289 288 288 287 288 287 286 287 286 287 286 284 281 281 282 282 281 281 279 279 278
279 281 284 286 285 285 285 285 286 286 286 286 285 285 285 285 285 287 287 286 286 286 286 287 286 285 285 284 284 285 285 284 282 282 281 281 280 280 280 280 279 277 277
276 279 283 285 285 283 283 284 288 289 289 289 289 287 286 289 289 289 288 288 289 288 285 285 284 284 283 283 282 282 283 282 282 282 281 281 279 279 278 279 278 277 276
274 276 280 284 284 283 282 282 282 285 289 289 289 289 289 289 289 289 289 289 288 287 284 283 282 282 281 281 282 281 280 281 282 281 280 280 279 279 278 277 276 276 273
270 273 279 284 284 283 283 282 281 281 281 282 287 288 288 289 288 287 286 284 280 282 282 281 281 281 280 280 280 279 279 279 278 278 277 277 278 277 275 274 273 272 270
268 272 278 283 283 282 280 279 278 278 277 276 278 279 281 283 282 282 282 278 276 275 276 275 276 276 276 276 275 276 276 275 274 273 272 272 273 272 269 268 268 267 266
269 273 278 281 279 278 278 277 276 274 273 273 273 273 275 276 273 273 273 274 273 272 272 271 272 272 272 272 272 272 271 270 270 269 268 268 267 268 266 265 264 264 259
270 274 276 275 275 276 276 275 274 273 273 273 274 276 276 271 269 269 269 269 269 269 269 269 268 268 269 269 269 268 267 266 266 265 265 265 265 263 263 263 261 260 258
271 271 271 272 273 273 273 273 272 271 270 269 269 272 273 268 267 266 266 265 266 266 267 266 265 265 265 266 266 265 264 263 264 264 263 262 262 261 260 260 259 257 255
267 268 268 269 270 270 270 269 269 268 267 267 267 267 267 266 265 264 264 264 264 264 265 264 263 262 263 263 264 265 264 263 262 263 261 260 259 258 259 258 256 253 252
266 267 267 269 269 269 268 268 268 268 268 267 267 266 265 265 264 263 263 263 263 263 263 263 263 262 262 261 261 261 261 261 260 260 261 260 258 257 256 252 252 251 252
266 266 268 268 268 268 267 267 266 266 265 265 264 264 264 264 263 263 263 263 262 262 262 262 262 262 261 261 260 260 263 260 258 259 257 257 256 255 252 250 249 249 249
266 266 267 267 266 266 266 265 265 265 264 264 264 264 264 263 263 262 262 262 262 262 262 261 261 261 260 260 260 261 263 262 260 258 257 257 254 249 248 249 248 248 248
Wind_Speed
8 8 8 8 10 12 12 12 11 11 12 15 17 19 19 20 21 22 23 23 24 23 22 22 24 21 15 14 13 13 13 13 13 8 6 8 7 10 5 8 7 9 7
8 8 9 9 10 11 13 12 9 11 11 14 15 18 19 21 20 23 24 23 25 24 24 24 23 16 22 19 14 17 15 14 12 15 7 4 6 6 5 8 5 4 6
9 10 9 9 10 12 13 12 10 13 14 14 16 18 20 22 22 22 25 25 25 26 25 24 24 23 21 17 17 15 13 11 11 10 8 3 2 3 3 1 3 4 4
8 9 10 11 10 11 12 12 13 13 13 14 16 19 20 21 22 23 22 25 25 25 25 25 25 24 23 21 19 17 14 13 13 11 7 4 3 2 2 4 2 0 3
12 13 13 10 11 13 12 10 10 10 13 15 17 19 20 20 18 22 24 23 25 25 24 23 23 24 27 26 16 18 17 15 11 12 5 3 3 3 6 4 2 2 2
15 15 13 13 13 12 13 13 13 14 15 16 18 20 21 17 26 24 25 22 23 23 22 22 23 18 20 26 26 26 21 18 15 13 11 10 7 5 4 5 5 4 3
13 14 15 14 16 14 13 13 15 16 17 18 20 20 22 23 27 23 24 22 22 21 23 21 17 15 18 21 25 26 24 25 24 19 13 11 10 10 8 5 2 3 4
14 14 13 12 14 14 14 15 16 15 18 18 19 20 21 20 24 22 23 22 22 23 23 24 23 21 21 24 23 22 22 18 18 13 15 12 9 12 12 7 8 6 5
10 11 11 9 14 15 16 16 15 16 17 17 17 19 20 23 24 20 18 18 19 23 21 23 24 21 25 30 23 16 10 7 8 11 13 15 17 18 15 10 7 7 2
10 12 12 14 14 16 15 15 14 14 17 15 18 17 19 20 24 20 18 14 16 14 16 18 22 23 25 29 22 19 17 13 14 14 12 15 12 15 14 4 10 9 5
9 12 13 13 15 14 14 13 14 15 15 16 17 15 15 13 16 19 19 16 15 13 11 7 9 19 22 24 21 16 17 16 16 12 10 10 8 10 7 6 5 5 4
11 13 13 13 11 10 13 13 13 12 13 14 13 12 5 6 9 13 19 20 22 8 8 6 7 22 25 21 15 29 30 22 11 13 7 9 11 9 6 7 9 8 7
13 13 14 13 11 10 10 11 10 9 9 11 9 7 4 4 4 12 5 7 13 9 6 10 19 19 28 23 30 28 20 13 12 12 11 7 8 8 8 8 10 12 12
14 13 12 11 11 9 7 6 7 7 9 8 6 5 3 3 4 4 5 8 17 17 22 12 17 22 19 21 17 15 9 10 11 13 11 9 8 7 7 5 7 8 8
13 13 12 9 9 8 6 5 6 7 7 7 4 3 3 3 3 4 4 4 6 8 13 12 10 11 11 11 11 11 11 11 12 12 12 10 9 8 7 6 6 4 6
13 11 9 9 8 5 4 4 8 10 7 4 3 2 3 7 11 15 20 17 20 13 6 11 9 9 11 10 12 11 9 12 10 10 10 10 10 8 8 6 6 7 7
12 12 10 9 8 6 3 3 3 5 12 11 11 12 13 14 16 18 19 19 17 14 11 10 10 9 10 9 9 9 10 9 11 10 9 8 8 8 9 7 6 6 4
10 14 11 9 7 6 4 3 2 2 4 5 11 10 14 15 17 17 18 15 10 11 9 10 10 8 9 9 9 9 9 9 9 8 8 8 7 8 8 7 5 5 4
8 9 10 8 6 4 2 2 1 3 1 2 4 10 12 19 20 21 19 9 9 8 8 9 8 9 8 8 8 8 9 8 7 8 6 7 7 8 7 6 5 5 5
8 14 13 7 3 3 2 3 2 4 2 2 3 3 3 6 8 8 8 8 9 8 7 8 8 8 8 7 7 7 8 8 8 7 6 6 6 6 6 6 5 5 2
8 9 8 2 1 2 2 3 3 5 4 3 4 6 13 9 7 7 7 8 8 8 7 7 8 7 7 7 6 6 7 7 7 7 6 6 6 6 5 5 5 4 4
8 5 1 1 1 3 3 3 5 4 6 5 5 8 16 8 8 8 8 8 8 8 6 7 7 6 5 5 5 6 7 7 6 6 6 6 6 6 5 5 5 4 3
3 1 2 2 3 5 4 4 5 5 5 6 4 5 7 8 8 8 8 7 6 7 6 7 7 6 5 5 6 5 6 5 5 6 7 6 5 5 5 5 5 4 3
1 2 2 2 3 4 5 5 6 6 5 5 6 6 6 7 8 8 7 6 6 6 6 6 6 7 6 7 6 6 6 5 4 4 6 7 5 5 4 4 3 4 4
2 3 3 4 5 5 6 6 6 6 5 5 6 7 6 7 7 7 7 6 6 6 6 6 5 7 8 9 8 7 7 8 5 5 4 6 7 7 5 4 3 2 3
7 7 6 6 6 6 6 7 7 6 6 6 5 5 5 6 6 6 5 6 6 5 5 4 5 8 8 6 7 7 8 8 6 6 4 4 5 4 3 4 4 3 3
Wind_Direction
280 275 269 260 253 255 252 243 236 245 251 250 242 240 234 229 226 228 227 228 230 228 225 225 227 223 223 212 217 217 211 208 222 220 194 194 179 195 188 202 185 184 205
270 269 267 268 268 264 258 249 240 246 247 252 256 255 249 243 230 230 229 227 229 231 228 227 228 221 222 218 212 213 216 211 216 223 187 191 184 196 176 187 203 162 182
292 290 283 273 267 265 262 257 248 251 251 254 257 258 255 249 244 233 232 231 229 228 226 228 225 221 219 216 214 213 215 208 208 222 214 142 135 141 114 76 181 160 180
294 288 288 285 276 269 264 259 255 251 257 260 259 261 258 256 250 246 236 233 232 232 229 225 222 220 219 213 212 207 200 204 206 205 202 171 156 145 119 149 210 233 177
315 308 303 307 302 293 283 270 269 269 268 270 270 267 264 259 253 245 240 233 232 233 230 229 226 218 216 211 205 205 197 200 194 204 161 137 169 160 187 168 161 125 190
315 311 309 303 301 300 296 292 291 284 278 274 269 265 265 259 254 240 236 239 234 231 235 225 223 213 208 206 203 203 197 193 195 190 199 195 182 171 149 157 130 134 199
307 306 307 307 306 307 302 296 290 287 287 278 273 270 266 262 255 241 227 238 238 233 227 223 218 214 207 210 208 197 196 196 192 193 189 195 181 176 144 119 102 135 156
297 298 298 296 297 305 304 302 301 295 290 286 281 277 270 265 257 241 226 235 238 236 231 228 224 214 205 203 206 208 199 198 193 193 197 191 185 160 161 155 134 107 71
279 284 288 287 297 300 295 293 294 291 288 283 274 276 277 275 264 247 227 241 241 237 234 229 221 215 204 200 201 177 150 108 95 126 120 130 128 133 131 116 123 141 120
293 298 298 299 291 290 290 294 291 284 283 282 279 272 269 270 270 258 228 241 240 237 234 230 220 215 206 194 187 161 144 137 128 117 110 89 103 113 101 88 148 147 127
292 297 297 294 291 282 285 285 286 284 285 283 279 275 274 274 276 280 245 239 241 237 225 208 216 207 185 181 163 153 141 130 117 116 113 106 108 79 75 74 65 121 112
302 300 296 287 285 286 286 285 282 280 282 285 287 283 271 285 275 258 251 242 260 234 219 200 188 160 141 132 128 124 126 119 125 105 127 119 106 97 100 90 85 76 62
307 300 300 292 290 287 286 290 294 294 290 292 286 279 287 303 338 11 349 153 137 113 115 123 112 104 110 101 117 115 120 119 126 119 105 101 88 100 99 91 82 85 72
302 298 297 293 293 289 285 288 290 299 298 291 288 284 302 331 351 355 27 70 99 106 110 99 101 94 93 106 98 93 94 107 124 111 110 107 110 113 108 112 112 104 97
305 297 293 286 280 285 278 294 314 287 281 291 289 305 301 341 12 47 52 96 83 96 107 104 90 90 98 92 89 86 92 100 105 115 118 118 110 110 113 111 115 97 101
304 300 293 293 284 267 282 298 334 344 334 339 344 359 332 99 102 98 91 95 99 86 64 91 96 97 93 92 95 95 94 101 103 106 109 118 124 126 123 114 99 100 113
291 293 287 285 275 265 260 279 314 322 24 43 56 64 74 85 85 88 85 76 79 89 84 78 85 87 88 92 97 102 105 103 109 109 113 116 121 122 126 119 111 110 100
276 277 278 276 266 252 235 237 283 327 327 9 42 73 75 77 78 84 88 79 61 52 70 84 90 96 96 100 100 107 103 94 96 104 108 113 120 121 113 106 109 120 124
283 276 276 276 248 231 204 164 129 89 343 349 28 43 52 71 68 60 58 65 81 73 73 74 75 79 81 85 85 87 93 97 104 103 91 101 100 106 97 102 111 110 104
278 271 267 262 198 175 180 152 119 93 40 13 39 5 1 48 49 47 54 67 70 65 69 77 68 73 79 86 91 98 97 94 94 95 94 90 88 103 116 119 111 114 114
283 283 262 232 176 161 162 136 119 109 92 49 58 73 88 89 74 59 57 55 61 63 67 71 69 67 67 71 74 81 87 90 89 94 97 97 103 107 97 101 110 107 114
282 270 263 165 112 110 115 110 107 101 94 80 53 70 83 77 79 73 66 59 56 58 56 71 69 62 59 76 88 92 91 96 97 102 104 104 106 109 111 119 107 109 117
276 288 56 42 88 105 100 98 102 100 99 95 87 81 79 85 85 79 73 66 65 67 62 70 80 73 57 60 60 78 107 114 115 118 117 116 116 120 120 123 127 122 112
190 94 91 86 93 98 104 103 101 101 106 107 104 95 91 90 91 88 85 82 75 70 69 73 77 90 83 70 65 66 74 77 79 101 119 124 124 123 121 110 134 131 124
44 64 81 95 97 100 100 89 81 74 72 68 74 79 84 85 90 89 88 89 82 78 77 79 81 91 89 93 93 101 108 103 103 113 98 117 134 136 127 121 125 109 124
46 55 57 59 63 65 70 74 70 69 71 70 74 78 88 94 94 96 98 96 95 94 100 94 104 108 112 111 124 128 135 140 138 139 138 129 125 129 113 126 139 134 128